Weather in Toysi

Russia / Chuvash Republic     55°04′34″N   47°46′08″E
temp.,
°C
wind,
m/s
gust,
m/s
humid.,
%
clouds,
%
prec.,
mm/h
press.,
hPa
HPBL,
m
8 may, sat
sat800:00+8nnw4693100 4.7 1016423
03:00+8nne4891100 6.6 1017394
06:00+8nne3594100 1.0 1017333
09:00+8nne3594100 1.3 1017358
12:00+10ene2287100 0.1 1017417
15:00+14s247092 0.1 1015878
18:00+15e247528 0.0 1013148
21:00+12ese4108023 0.0 1012165
9 may, sun
sun900:00+11s3482100 0.0 101165
03:00+11sse3685100 0.0 101196
06:00+11sse51279100 0.0 1011257
09:00+15sse61267100 0.0 1011462
12:00+15sse51066100 0.0 1011424
15:00+19s51057100 0.0 10111270
18:00+14wsw4888100 1.0 1012372
21:00+10wnw5791100 4.0 1016368
10 may, mon
mon1000:00+9wnw3693100 0.0 1017375
03:00+7nw6990100 0.0 1019370
06:00+6nnw5891100 0.4 1021401
09:00+7nnw6986100 0.6 1023518
12:00+9nnw6882100 0.4 1024599
15:00+10n6882100 0.7 1026633
18:00+10nne5883100 0.1 1027747
21:00+7nne51187100 0.1 1028447
11 may, tue
tue1100:00+6nne41089100 0.0 1028324
03:00+6nne512896 0.0 1029338
06:00+7ne5128399 0.0 1030430
09:00+12ne7962100 0.0 1030651
12:00+15ene6748100 0.0 1030933
15:00+16ne6744100 0.0 1029998
18:00+15ene485733 0.0 1029339
21:00+11ne31068100 0.0 1029177
12 may, wed
wed1200:00+9ene4106955 0.0 1030186
03:00+8ene35720 0.0 103079
06:00+10ene39673 0.0 1030243
09:00+15e58494 0.0 1030558
12:00+18e56395 0.0 1030963
15:00+19e56415 0.0 10291126
18:00+17ene47542 0.0 1028337
21:00+13ene39705 0.0 1028163